Location: Long Barn
(38.0930°N, 120.1344°W)
Time: 10:01:17
(UTC+00:00)

ISS - Visible Passes

Search period start: 21 January 2026 00:00
Search period end: 31 January 2026 00:00
Orbit: 413 x 423 km, 51.6° (Epoch: 20 January)

Date Brightness Start Highest point End Pass type
(mag) Time Alt. Az. Time Alt. Az. Time Alt. Az.
24 Jan -1.0 03:03:43 10° NNW 03:03:59 11° NNW 03:03:59 11° NNW visible
25 Jan -1.5 02:16:06 10° N 02:17:33 12° NNE 02:18:04 12° NNE visible
26 Jan -1.7 03:03:45 10° NNW 03:05:08 20° NNW 03:05:08 20° NNW visible
27 Jan -2.2 02:15:50 10° NNW 02:18:28 21° NNE 02:19:20 19° NE visible
27 Jan -0.4 03:52:09 10° WNW 03:52:18 11° WNW 03:52:18 11° WNW visible
28 Jan -3.3 03:03:54 10° NW 03:06:38 57° NW 03:06:38 57° NW visible
29 Jan -3.5 02:15:44 10° NW 02:18:59 47° NE 02:21:09 18° ESE visible
29 Jan -0.5 03:53:18 10° W 03:54:08 13° WSW 03:54:08 13° WSW visible
30 Jan -1.9 03:04:24 10° WNW 03:07:20 29° SW 03:08:54 19° S visible
